KK4JIV-13 Weather Reports


time (UTC)temp
C
wind
direction
speed
KPH
gust
KPH
rain 1hr
cm
rain 24hr
cm
rain mn
cm
humidity
%
barometer
mb
20260504110514 11 29 0.0 0.0 0.00 0.00 0.00 97 1016.7
20260504100430 11 30 0.0 0.0 0.00 0.00 0.00 96 1016.4
20260504081823 12 25 0.0 0.0 0.00 0.00 0.00 94 1016.5
20260504081320 12 33 0.0 0.0 0.00 0.00 0.00 94 1016.5
20260504080816 12 33 0.0 0.0 0.00 0.00 0.00 94 1016.6
20260504080313 12 33 0.0 0.0 0.00 0.00 0.00 93 1016.6
20260504070240 15 12 0.0 0.0 0.00 0.00 0.00 86 1016.8
20260504060201 15 328 1.6 3.2 0.00 0.00 0.00 84 1017.4
20260504050629 15 33 0.0 0.0 0.00 0.00 0.00 84 1017.7
20260504050126 16 33 0.0 0.0 0.00 0.00 0.00 83 1017.5
20260504045623 16 40 0.0 0.0 0.00 0.00 0.00 83 1017.6
20260504045118 16 32 0.0 0.0 0.00 0.00 0.00 82 1017.6
20260504044616 16 28 0.0 0.0 0.00 0.00 0.00 81 1017.8
20260504044113 16 35 0.0 0.0 0.00 0.00 0.00 80 1017.7
20260504043610 16 9 0.0 0.0 0.00 0.00 0.00 80 1017.8
20260504043107 16 31 0.0 0.0 0.00 0.00 0.00 80 1017.9
20260504042604 16 32 0.0 0.0 0.00 0.00 0.00 79 1017.8
20260504042101 16 31 0.0 0.0 0.00 0.00 0.00 79 1017.9
20260504041556 16 31 0.0 0.0 0.00 0.00 0.00 79 1017.8
20260504041053 16 33 0.0 0.0 0.00 0.00 0.00 79 1017.8
20260504040550 17 33 0.0 0.0 0.00 0.00 0.00 79 1017.8
20260504040047 17 30 0.0 0.0 0.00 0.00 0.00 77 1017.8
20260504035544 17 35 0.0 0.0 0.00 0.00 0.00 77 1017.8
20260504035040 17 9 0.0 0.0 0.00 0.00 0.00 77 1018.0
20260504034538 17 9 0.0 0.0 0.00 0.00 0.00 76 1018.1
20260504034035 17 7 0.0 0.0 0.00 0.00 0.00 75 1018.1
20260504033533 17 344 0.0 1.6 0.00 0.00 0.00 74 1018.0
20260504033030 18 348 1.6 1.6 0.00 0.00 0.00 73 1017.8
20260504032527 18 37 0.0 0.0 0.00 0.00 0.00 72 1017.7
20260504032024 18 34 0.0 0.0 0.00 0.00 0.00 70 1017.7
20260504031521 18 33 0.0 0.0 0.00 0.00 0.00 68 1017.7
20260504031017 18 42 0.0 0.0 0.00 0.00 0.00 67 1017.8
20260504030514 18 121 1.6 1.6 0.00 0.00 0.00 67 1017.4
20260504030010 18 60 0.0 0.0 0.00 0.00 0.00 67 1017.6
20260504025507 18 40 0.0 0.0 0.00 0.00 0.00 68 1017.7
20260504025004 18 43 0.0 0.0 0.00 0.00 0.00 67 1017.5
20260504024501 19 80 0.0 0.0 0.00 0.00 0.00 68 1017.4
20260504023959 19 83 0.0 0.0 0.00 0.00 0.00 67 1017.4
20260504023455 19 35 0.0 1.6 0.00 0.00 0.00 66 1017.5
20260504022950 19 50 0.0 0.0 0.00 0.00 0.00 67 1017.5
20260504022446 19 37 0.0 0.0 0.00 0.00 0.00 65 1017.4
20260504021943 19 53 0.0 0.0 0.00 0.00 0.00 67 1017.3
20260504021441 20 43 0.0 0.0 0.00 0.00 0.00 67 1017.3
20260504020938 19 44 0.0 0.0 0.00 0.00 0.00 65 1017.1
20260504020434 20 34 0.0 0.0 0.00 0.00 0.00 64 1017.3
20260504015931 20 74 0.0 0.0 0.00 0.00 0.00 65 1017.2
20260504015427 20 100 0.0 1.6 0.00 0.00 0.00 65 1017.1
20260504014923 20 57 0.0 0.0 0.00 0.00 0.00 64 1016.8
20260504014419 20 76 0.0 0.0 0.00 0.00 0.00 64 1016.9
20260504013916 20 50 0.0 1.6 0.00 0.00 0.00 62 1016.8
20260504013415 20 84 1.6 1.6 0.00 0.00 0.00 62 1016.7
20260504012910 20 94 1.6 3.2 0.00 0.00 0.00 61 1016.6
20260504012409 21 123 1.6 1.6 0.00 0.00 0.00 60 1016.6
20260504011905 21 156 3.2 4.8 0.00 0.00 0.00 59 1016.4
20260504011403 21 62 0.0 0.0 0.00 0.00 0.00 59 1016.4
20260504010858 21 69 0.0 1.6 0.00 0.00 0.00 59 1016.3
20260504010354 21 68 0.0 1.6 0.00 0.00 0.00 58 1016.2
20260504005851 21 78 1.6 1.6 0.00 0.00 0.00 58 1016.1
20260504005347 21 42 3.2 3.2 0.00 0.00 0.00 57 1016.0
20260504004845 21 47 0.0 0.0 0.00 0.00 0.00 57 1016.1
20260504004343 22 80 1.6 1.6 0.00 0.00 0.00 57 1015.9
20260504003839 22 317 1.6 3.2 0.00 0.00 0.00 56 1016.1
20260504003336 22 24 3.2 4.8 0.00 0.00 0.00 55 1016.0
20260504002833 22 85 1.6 4.8 0.00 0.00 0.00 55 1015.9
20260504002329 22 73 1.6 1.6 0.00 0.00 0.00 53 1015.9
20260504001827 22 77 3.2 4.8 0.00 0.00 0.00 53 1015.7
20260504001324 23 43 1.6 3.2 0.00 0.00 0.00 52 1015.6
20260504000821 23 81 0.0 0.0 0.00 0.00 0.00 52 1015.7
20260504000318 23 112 3.2 3.2 0.00 0.00 0.00 51 1015.5
20260503235816 23 84 4.8 6.4 0.00 0.00 0.00 50 1015.5
20260503235313 23 101 1.6 3.2 0.00 0.00 0.00 49 1015.4
20260503234810 24 82 1.6 3.2 0.00 0.00 0.00 47 1015.4
20260503234308 24 86 0.0 0.0 0.00 0.00 0.00 46 1015.3
20260503233806 25 82 1.6 1.6 0.00 0.00 0.00 46 1015.3
20260503233301 25 56 0.0 0.0 0.00 0.00 0.00 42 1015.3
20260503232758 25 32 1.6 3.2 0.00 0.00 0.00 40 1015.3
20260503232256 25 63 1.6 1.6 0.00 0.00 0.00 39 1015.5
20260503231754 25 17 0.0 0.0 0.00 0.00 0.00 40 1015.3
20260503231250 25 28 0.0 0.0 0.00 0.00 0.00 40 1015.4
20260503230746 26 37 0.0 0.0 0.00 0.00 0.00 39 1015.3
20260503230244 26 29 0.0 0.0 0.00 0.00 0.00 38 1015.3
20260503225741 26 26 0.0 0.0 0.00 0.00 0.00 39 1015.3
20260503225241 26 34 0.0 0.0 0.00 0.00 0.00 39 1015.2
20260503224738 26 68 0.0 0.0 0.00 0.00 0.00 39 1015.0
20260503224236 26 125 0.0 1.6 0.00 0.00 0.00 40 1015.0
20260503223733 26 29 0.0 0.0 0.00 0.00 0.00 39 1015.1
20260503223231 26 24 1.6 1.6 0.00 0.00 0.00 39 1015.2
20260503222727 26 30 0.0 0.0 0.00 0.00 0.00 38 1015.2
20260503222225 27 93 0.0 0.0 0.00 0.00 0.00 36 1015.2
20260503221723 27 300 1.6 1.6 0.00 0.00 0.00 35 1015.3
20260503221221 27 324 0.0 0.0 0.00 0.00 0.00 35 1015.3
20260503220717 26 83 0.0 0.0 0.00 0.00 0.00 37 1015.4
20260503220214 27 340 1.6 3.2 0.00 0.00 0.00 35 1015.3
20260503215710 27 28 0.0 0.0 0.00 0.00 0.00 38 1015.3
20260503215207 27 83 1.6 1.6 0.00 0.00 0.00 35 1015.3
20260503214706 27 83 4.8 6.4 0.00 0.00 0.00 34 1015.4
20260503214201 27 8 0.0 0.0 0.00 0.00 0.00 36 1015.3
20260503213655 27 120 3.2 4.8 0.00 0.00 0.00 34 1015.4
20260503213152 27 354 0.0 1.6 0.00 0.00 0.00 36 1015.3
20260503212649 27 129 3.2 3.2 0.00 0.00 0.00 34 1015.2
20260503212146 27 20 3.2 4.8 0.00 0.00 0.00 35 1015.3
20260503211644 27 63 0.0 0.0 0.00 0.00 0.00 36 1015.3
20260503211139 26 107 6.4 6.4 0.00 0.00 0.00 38 1015.4
20260503210635 26 41 1.6 3.2 0.00 0.00 0.00 37 1015.3
20260503210133 26 168 0.0 1.6 0.00 0.00 0.00 37 1015.3
20260503205628 26 88 0.0 0.0 0.00 0.00 0.00 39 1015.2
20260503205124 27 139 4.8 6.4 0.00 0.00 0.00 37 1015.4
20260503204621 27 114 1.6 1.6 0.00 0.00 0.00 37 1015.3
20260503204119 27 2 0.0 1.6 0.00 0.00 0.00 38 1015.4
20260503203615 26 357 3.2 4.8 0.00 0.00 0.00 36 1015.2
20260503203113 27 80 0.0 0.0 0.00 0.00 0.00 38 1015.7
20260503202610 28 315 4.8 9.7 0.00 0.00 0.00 36 1015.7
20260503202108 28 150 3.2 3.2 0.00 0.00 0.00 35 1015.6
20260503201606 27 29 3.2 4.8 0.00 0.00 0.00 36 1015.7
20260503201103 26 311 0.0 1.6 0.00 0.00 0.00 35 1015.9
20260503200559 27 332 4.8 6.4 0.00 0.00 0.00 36 1016.0
20260503200056 28 342 3.2 3.2 0.00 0.00 0.00 33 1016.0
20260503195548 27 352 3.2 3.2 0.00 0.00 0.00 36 1016.0
20260503195045 26 351 0.0 1.6 0.00 0.00 0.00 36 1016.1
20260503194542 27 315 1.6 3.2 0.00 0.00 0.00 35 1016.3
20260503194041 26 45 0.0 0.0 0.00 0.00 0.00 39 1016.3
20260503193539 26 18 4.8 9.7 0.00 0.00 0.00 37 1016.4
20260503193033 26 30 3.2 4.8 0.00 0.00 0.00 39 1016.5
20260503192530 27 119 6.4 6.4 0.00 0.00 0.00 36 1016.8
20260503192026 27 294 3.2 3.2 0.00 0.00 0.00 35 1016.6
20260503191523 26 60 3.2 3.2 0.00 0.00 0.00 35 1016.7
20260503191020 26 27 3.2 3.2 0.00 0.00 0.00 37 1016.8
20260503190517 26 75 8.0 9.7 0.00 0.00 0.00 38 1016.9
20260503190014 27 38 1.6 3.2 0.00 0.00 0.00 37 1016.9
20260503185510 26 26 0.0 1.6 0.00 0.00 0.00 38 1017.1
20260503185010 26 27 3.2 4.8 0.00 0.00 0.00 39 1017.2
20260503184506 26 356 0.0 0.0 0.00 0.00 0.00 39 1017.2
20260503184003 26 30 1.6 3.2 0.00 0.00 0.00 39 1017.3
20260503183459 26 94 6.4 6.4 0.00 0.00 0.00 38 1017.3
20260503182956 26 106 6.4 9.7 0.00 0.00 0.00 38 1017.4
20260503182455 26 89 1.6 1.6 0.00 0.00 0.00 37 1017.6
20260503181952 27 68 3.2 3.2 0.00 0.00 0.00 41 1017.6
20260503181449 26 53 1.6 3.2 0.00 0.00 0.00 42 1017.5
20260503180945 25 115 9.7 14.5 0.00 0.00 0.00 42 1017.6
20260503180444 26 85 3.2 3.2 0.00 0.00 0.00 42 1017.6
20260503175940 27 147 0.0 1.6 0.00 0.00 0.00 40 1017.5
20260503175438 25 329 1.6 1.6 0.00 0.00 0.00 44 1017.5
20260503174933 26 9 4.8 4.8 0.00 0.00 0.00 41 1017.7
20260503174432 26 63 3.2 4.8 0.00 0.00 0.00 43 1017.9
20260503173932 26 61 1.6 1.6 0.00 0.00 0.00 43 1017.7
20260503173428 25 336 0.0 1.6 0.00 0.00 0.00 45 1017.8
20260503172925 25 89 4.8 9.7 0.00 0.00 0.00 43 1017.9
20260503172422 26 56 1.6 1.6 0.00 0.00 0.00 43 1018.0
20260503171918 25 60 4.8 6.4 0.00 0.00 0.00 45 1018.1
20260503171415 25 336 3.2 3.2 0.00 0.00 0.00 48 1018.1
20260503170913 25 0 0.0 0.0 0.00 0.00 0.00 48 1018.0
20260503170409 25 93 4.8 4.8 0.00 0.00 0.00 47 1018.4
20260503150801 22 106 6.4 11.3 0.00 0.00 0.00 60 1018.8
20260503150257 22 128 3.2 4.8 0.00 0.00 0.00 59 1018.7
20260503140222 20 10 3.2 3.2 0.00 0.00 0.00 73 1018.5
20260503131151 18 28 0.0 1.6 0.00 0.00 0.00 82 1018.1
20260503130649 17 313 0.0 1.6 0.00 0.00 0.00 88 1018.2
20260503130146 16 28 0.0 1.6 0.00 0.00 0.00 93 1018.0